Location: Maccacari
(45.1333°N, 11.1333°E)
Time: 03:39:28
(UTC+00:00)

Altair - Pass Details

Date: 31 January 2021
Orbit: 1501 x 1682 km, 47.2° (Epoch: 01 March)

Event Time Altitude Azimuth Distance (km) Brightness Sun altitude
Rises 04:08:16 0° 255° (WSW) 4,843 - -26.3°
Reaches altitude 10° 04:11:21 10° 256° (WSW) 3,878 - -25.8°
Exits shadow 04:16:50 39° 260° (W) 2,314 7.9 -24.8°
Maximum altitude 04:21:24 86° 347° (NNW) 1,681 7.6 -24.0°
Drops below altitude 10° 04:31:38 10° 77° (ENE) 3,948 10.7 -22.2°
Sets 04:34:49 0° 78° (ENE) 4,933 11.5 -21.6°
